Updated20/11/2018 00:40 
 

GeoURL
free counters
Scottish Weather Network UK Weather Network Cumulus Top Weather Sites

Peebles Weather - Radar Images

Raw Data, Raw Data Expanded

Ignore low humidity and Dew Point values. Something wrong with the sensor.
Daytime temperatures are in direct sunlight so may be higher than official air temperature values.
As with any other website, we log your IP address and browser type in the server logs for diagnostic reasons. Cookies are used to record visit time and gauges preferences. No personal information is stored or processed.

All times are in BST (UTC+1) unless specified.

2018/11/20 00:20 EGPH 200020Z 08012KT 9999 -RA SCT020TCU BKN037 06/03 Q1027
5.0°C 0.0 mm 0.0 mm 0.3 mm 5.7 mph 9.8 mph 1021.2 hPa 80% X-Ray Solar Flare Level
Planetary K-Index
Planetary K-Index History
Station Warn Rain Snow Flood Wind Ltng Heat Cold Glob Moon Temp Rain 1h Rain Tue Rain 24h Wind 10m Gust Pressure Hum Proton Levels

0.488 m Waxing Gibbous Cold F2-NE F: A: Kp:0 SSN:0

Radar Images

 

XHTML 1.1 | CSS